Wind_Speed
27 24 22 20 17 15 15 16 15 15 15 14 13 10 8 8 8 6 4 4 4 3 0 1 3 3 2 2 2 3 4 4 6 7 9 11 13 14 15 15 15 16 17 18 20 22 23 24 26 27 28 29 30 30 31 32 34 37 39 41 41 41 41 41 40 39 38 35 32 30 28 27 25 24 23 22 21 20 20 20 20 19 18 18 17
28 25 23 21 18 16 16 16 16 15 15 14 13 11 7 7 7 6 4 4 6 5 2 1 2 3 2 2 1 2 3 3 4 6 7 10 12 13 14 14 15 16 17 18 19 21 22 24 25 26 27 28 29 30 31 31 31 33 35 38 39 40 40 41 41 41 41 40 38 36 34 32 31 29 27 25 23 22 21 20 20 19 18 18 17
29 27 25 22 20 18 17 17 17 16 16 15 14 11 8 6 6 6 5 5 7 7 5 3 2 3 3 2 1 1 1 2 4 5 6 9 11 12 13 14 14 15 16 17 18 20 21 23 24 25 26 27 28 30 30 31 31 31 32 33 35 37 39 40 41 41 41 41 40 39 38 37 35 33 31 28 26 24 23 21 20 19 19 18 18
30 28 25 23 22 20 19 19 19 18 16 15 14 12 9 6 6 6 5 5 7 8 7 6 4 3 4 3 2 2 2 1 2 4 5 8 10 12 12 13 14 15 16 17 18 19 20 22 23 24 25 26 27 29 29 30 31 31 31 31 32 33 35 37 39 39 39 39 39 38 38 36 35 34 31 29 28 26 24 22 21 20 19 19 19
31 29 27 25 24 22 21 20 20 19 18 16 15 13 10 7 6 6 5 5 7 10 10 9 7 5 5 5 4 3 3 2 1 3 4 7 10 11 12 12 13 14 15 16 17 18 19 21 22 23 24 25 26 27 28 29 30 30 31 31 31 31 32 34 36 37 37 37 36 36 35 34 33 31 30 28 27 25 24 23 22 20 19 19 18
32 30 29 27 26 24 23 22 22 21 19 17 16 14 12 9 7 6 5 5 7 11 12 12 10 8 6 5 3 2 2 2 2 2 3 6 9 11 11 12 13 14 15 16 17 17 19 20 21 22 23 24 25 25 26 27 28 29 30 31 31 31 31 32 32 33 34 35 34 34 34 33 32 30 28 27 26 25 24 23 21 20 19 17 15
34 32 31 29 28 26 25 25 23 22 20 18 16 15 13 11 9 8 7 6 7 10 13 14 13 11 8 5 3 3 2 2 2 2 3 5 8 11 11 10 12 13 14 15 16 17 18 19 20 21 22 23 23 24 24 25 26 27 28 29 30 30 30 31 31 31 31 32 32 32 32 31 31 30 28 26 26 24 23 22 21 19 18 16 14
34 32 31 30 29 28 27 26 25 23 21 19 17 16 15 13 11 10 9 7 7 10 13 14 15 12 9 6 5 4 3 3 2 2 3 4 6 10 11 10 11 13 14 15 16 17 18 18 19 20 21 22 22 23 23 23 24 25 26 27 28 28 29 29 30 30 30 30 30 30 30 29 29 29 27 25 25 24 22 22 21 20 18 16 14
34 32 30 29 28 28 28 27 25 24 22 20 18 17 17 16 13 11 10 9 8 10 12 13 14 13 10 8 7 6 5 4 4 3 3 3 5 8 11 11 11 11 13 15 16 16 17 18 19 19 20 20 21 22 22 22 23 24 25 25 26 26 27 27 28 29 29 29 29 29 29 28 28 27 26 25 24 23 22 22 22 21 19 17 15
36 34 31 28 26 27 28 26 24 23 22 21 19 18 18 16 14 12 12 11 9 9 11 12 12 13 12 11 9 7 6 6 5 5 5 4 4 6 9 11 11 11 12 14 15 16 17 17 18 19 19 19 20 20 21 21 22 22 23 23 24 24 24 25 25 26 26 27 27 27 27 27 27 26 26 25 23 23 22 21 21 21 21 19 17
38 36 33 30 27 27 27 25 23 23 22 20 19 18 18 17 15 14 14 13 10 10 10 12 13 13 14 13 11 9 8 7 6 6 6 5 4 5 8 10 11 12 12 13 14 14 15 16 17 18 18 19 19 19 19 20 20 20 21 21 21 22 22 22 22 23 23 24 24 24 24 24 24 24 24 23 22 22 21 21 21 21 21 20 18
39 38 36 34 32 30 27 23 21 21 21 19 18 18 18 18 17 16 16 14 11 10 11 13 14 15 15 14 13 11 9 8 7 6 7 6 4 4 6 9 11 12 12 12 13 13 14 15 16 17 17 18 18 18 18 18 18 18 19 19 19 19 20 20 20 20 20 20 20 21 21 21 21 21 21 20 20 20 19 19 19 19 20 19 18
39 40 40 39 36 33 29 24 22 22 20 19 19 19 19 20 19 18 18 16 14 12 12 14 16 16 16 15 14 13 11 9 8 7 7 6 4 4 5 7 9 11 12 12 12 13 13 14 15 16 16 17 17 16 17 17 17 17 17 17 17 17 17 17 17 17 17 17 17 17 17 17 17 17 17 17 16 16 16 16 16 17 17 17 16
40 40 41 40 38 36 33 29 26 24 23 21 20 20 21 21 21 20 20 19 16 14 14 16 17 18 17 17 16 15 12 10 9 8 8 7 5 4 5 6 8 10 12 12 12 12 13 14 14 15 15 15 15 15 15 15 15 15 16 15 15 15 15 15 15 15 15 14 14 14 14 14 14 14 14 14 14 14 14 14 13 14 14 14 14
43 42 41 39 37 35 34 32 29 27 25 23 22 22 23 23 22 22 23 21 18 17 16 16 18 19 19 18 18 16 14 11 10 9 8 7 6 5 5 6 7 9 11 11 11 12 12 13 13 14 14 14 14 14 14 14 14 14 14 14 14 14 14 14 14 14 13 13 13 12 12 12 12 12 12 12 11 12 12 12 12 12 12 12 12
43 43 41 38 34 32 31 31 30 29 28 25 23 23 24 24 23 24 24 23 20 18 18 18 19 21 21 20 19 18 15 12 10 10 9 8 7 6 5 6 7 8 10 10 10 10 10 11 11 12 12 12 12 13 13 13 13 13 12 12 13 13 13 13 13 13 13 13 12 12 12 11 11 11 11 10 10 10 10 10 10 10 10 11 11
41 38 38 36 33 30 29 28 28 29 28 26 24 23 23 24 24 24 25 24 22 20 19 20 20 22 22 22 21 20 17 14 11 11 10 9 8 7 6 5 6 7 9 10 9 9 8 8 9 9 10 10 11 11 11 12 11 11 11 11 11 12 12 12 12 12 12 12 12 12 11 11 11 10 10 10 9 9 9 9 9 9 10 10 10
42 39 37 34 32 30 30 29 29 28 28 27 25 23 23 23 24 25 25 25 23 21 20 20 20 22 23 24 23 21 18 16 14 13 12 11 10 8 7 5 5 5 7 9 9 8 6 6 6 7 7 8 9 9 9 10 10 10 9 10 10 10 10 11 11 11 11 11 11 11 11 11 10 10 10 9 9 9 9 9 9 9 9 9 10
42 40 37 35 32 30 30 30 30 30 29 29 27 25 25 24 25 26 26 25 24 23 21 20 20 21 23 24 24 23 21 19 17 15 13 12 11 9 8 6 5 5 6 7 8 8 6 4 3 4 5 6 7 7 8 8 8 8 8 8 8 9 9 9 10 10 10 10 10 10 10 10 10 10 9 9 9 9 9 9 9 9 9 9 10
42 39 37 35 32 31 30 29 29 30 31 30 30 28 27 27 27 28 27 26 25 25 23 21 21 22 23 25 25 24 23 22 20 17 15 14 13 12 10 8 7 5 5 6 8 8 7 4 2 2 3 4 5 6 7 7 6 7 7 7 7 7 8 8 8 9 9 9 9 9 9 9 9 9 9 9 9 8 9 9 9 9 9 10 10
42 40 37 35 33 32 31 28 27 29 30 30 30 28 27 28 28 29 29 28 27 26 24 22 22 22 23 25 25 25 25 24 23 20 17 16 15 14 12 10 9 7 6 7 7 8 7 5 3 1 1 2 4 5 6 6 6 6 6 6 5 6 6 6 7 7 7 7 7 7 7 8 8 8 8 8 8 9 9 9 9 9 9 10 10
44 41 39 37 35 34 32 29 28 29 30 30 30 29 29 29 30 31 31 30 28 27 26 24 23 23 24 24 25 26 26 25 24 22 20 18 17 16 14 12 10 9 8 8 8 8 7 6 4 2 1 1 3 5 5 6 6 5 5 5 5 5 4 4 5 5 5 6 6 6 6 7 7 7 7 8 8 9 9 9 9 10 10 10 11
46 43 41 39 37 36 35 33 31 31 30 29 31 32 31 30 32 34 33 32 30 29 28 26 25 24 25 26 26 26 27 26 25 23 22 21 20 19 17 15 13 12 11 10 9 8 8 6 5 3 2 1 3 4 5 5 5 5 5 5 5 5 4 4 4 4 4 4 4 5 5 6 7 7 7 8 8 8 9 9 9 10 10 11 11
48 46 44 42 40 38 36 35 33 31 30 30 31 33 33 34 35 35 34 32 31 29 28 28 26 25 26 27 28 28 28 28 26 24 22 21 21 21 20 18 17 15 14 12 11 10 9 7 6 5 4 3 4 5 6 6 6 5 5 5 5 5 4 4 4 4 4 4 5 5 5 6 7 7 8 8 8 8 8 9 9 10 11 11 11
51 49 47 45 42 40 38 36 34 33 32 32 31 32 34 37 37 37 35 33 30 29 28 28 28 27 27 28 29 30 30 30 28 26 24 22 21 21 22 21 20 18 16 14 13 11 10 8 7 6 5 5 5 6 7 7 7 6 6 6 5 5 5 5 5 5 5 6 6 6 6 6 7 7 8 8 9 9 9 9 9 10 11 11 11
54 52 50 48 46 43 41 39 37 35 34 33 32 32 34 37 39 38 36 34 33 32 31 31 30 29 29 29 30 31 32 31 30 28 27 25 23 22 22 22 21 19 18 16 14 12 11 9 9 8 8 8 8 7 8 8 7 7 7 7 7 6 6 6 6 6 6 6 6 6 6 6 6 7 8 8 9 9 9 9 9 10 10 11 11
57 55 52 51 49 47 44 42 40 38 37 35 34 33 34 38 39 38 37 37 36 35 35 34 33 32 31 31 31 32 33 33 32 31 29 28 27 25 23 23 23 22 20 18 16 14 12 11 11 11 11 11 10 9 8 8 8 7 7 8 8 7 7 7 7 7 7 7 6 6 6 5 6 6 7 8 8 9 9 9 9 10 10 11 11
60 58 56 54 52 51 48 46 43 41 39 38 36 35 35 38 40 40 40 39 37 36 36 35 33 33 33 32 32 33 33 34 34 33 32 31 30 28 26 25 25 24 23 21 19 17 15 14 14 13 13 13 13 11 10 8 8 7 7 8 8 8 8 8 8 8 7 7 6 6 6 5 5 6 7 7 8 9 9 9 10 10 11 11 11
63 61 59 57 55 54 52 50 47 44 42 40 39 38 36 38 41 43 43 42 39 37 37 36 35 34 33 32 32 31 32 34 35 35 35 34 33 32 30 28 27 26 25 24 22 20 18 17 16 14 14 13 13 12 10 9 8 8 8 8 9 8 8 8 8 8 7 7 6 6 6 6 6 6 7 7 8 9 9 10 10 11 12 12 12
66 64 62 60 58 56 55 53 51 48 46 43 42 41 39 38 41 44 45 44 42 39 37 38 38 37 34 33 32 32 32 32 33 35 36 36 36 35 33 32 30 28 27 26 25 23 21 20 18 17 15 15 14 12 10 10 9 9 9 9 9 9 9 9 8 8 7 6 6 5 5 5 6 6 7 8 9 10 11 11 12 12 13 14 14
69 67 65 63 61 59 58 56 54 52 50 47 45 43 42 40 41 44 46 45 45 43 40 39 39 37 35 33 34 34 33 32 33 34 36 36 37 36 36 35 33 31 30 28 26 25 23 22 21 19 18 17 15 12 10 10 10 10 10 10 10 10 10 9 9 8 8 7 6 5 5 5 5 5 7 8 9 10 11 12 12 13 14 14 15
73 70 69 67 64 62 61 59 57 55 54 51 49 47 45 43 42 43 46 48 47 44 42 40 38 35 33 34 35 35 35 34 34 34 35 37 38 38 38 37 36 34 33 31 29 27 26 24 22 22 21 20 18 15 13 12 12 12 12 12 12 12 12 11 10 10 9 8 7 6 6 6 5 5 6 7 8 9 10 11 12 12 13 14 14
76 74 72 70 67 65 63 62 60 59 57 55 53 50 48 47 44 44 46 49 48 45 42 39 37 35 34 35 36 37 37 37 35 35 36 37 38 39 39 38 37 35 35 34 33 31 29 27 25 24 23 22 21 18 16 16 15 14 14 14 14 13 13 12 11 11 10 10 9 8 7 7 6 6 6 6 7 7 8 9 10 11 12 12 13
79 77 75 73 71 68 66 64 63 61 60 59 56 54 52 50 48 46 46 48 49 46 42 39 38 39 40 40 39 39 39 39 38 37 36 37 38 39 39 38 37 36 35 35 34 33 31 29 27 26 25 24 23 21 19 19 18 17 16 16 15 15 15 14 13 12 12 11 10 10 9 8 8 7 7 7 7 7 7 8 9 10 11 12 13
82 80 78 76 74 72 69 67 66 64 63 61 60 58 56 54 52 50 48 48 50 48 44 43 46 47 47 45 43 42 41 41 40 39 37 37 37 37 38 38 37 36 35 34 33 32 32 30 29 27 25 25 25 23 22 21 21 20 19 18 18 18 17 16 15 14 13 13 12 11 10 9 9 9 9 9 8 7 7 7 8 9 10 12 13
86 84 82 80 78 75 72 70 69 67 65 64 63 62 60 58 55 53 51 50 52 53 50 50 52 52 49 46 44 43 43 43 42 41 38 37 36 35 36 36 35 35 34 34 33 32 32 31 29 27 26 26 26 25 24 24 23 22 21 21 21 20 19 17 16 15 15 14 14 12 11 11 10 10 10 11 10 8 7 7 8 9 9 11 13
90 88 86 84 82 79 76 74 72 70 68 67 66 65 63 61 59 57 55 53 54 56 57 55 54 51 49 47 45 45 45 44 43 42 39 35 33 31 31 32 33 34 34 33 33 32 32 31 29 29 28 28 28 27 26 26 25 24 23 24 23 21 20 19 18 17 16 16 15 13 12 12 11 11 11 12 11 10 9 8 9 9 8 10 13
93 92 90 88 86 83 80 77 75 73 72 70 69 68 66 65 63 61 59 57 56 57 60 61 58 53 51 50 50 49 49 47 45 43 39 35 33 31 30 30 32 34 34 34 34 33 32 31 31 31 30 29 28 27 27 27 27 25 25 25 24 21 20 19 18 18 17 17 16 15 14 13 12 11 13 13 13 12 10 9 9 8 7 9 13
96 94 93 91 89 87 84 81 79 77 75 73 72 71 69 68 66 64 63 61 59 59 60 63 63 57 53 53 53 53 51 49 46 43 40 37 35 35 37 37 37 37 36 35 34 33 32 32 31 31 31 30 29 27 26 27 26 26 26 26 24 22 21 20 19 18 18 18 17 16 15 14 12 12 13 14 15 14 12 10 9 8 6 8 13
97 96 95 93 92 90 87 84 82 80 78 77 75 74 72 71 70 68 67 65 64 62 61 63 65 62 56 54 54 54 53 50 47 44 42 40 39 40 43 44 43 40 36 34 33 32 32 31 31 31 31 30 29 27 27 27 26 26 26 26 25 23 22 20 18 18 19 19 19 17 16 14 13 13 14 16 16 16 14 11 8 7 6 7 11
99 98 97 95 94 92 90 87 85 83 82 80 78 77 75 74 73 71 70 69 67 66 63 62 64 63 59 56 56 56 55 51 49 46 45 45 46 47 47 45 41 38 37 35 33 32 31 31 30 30 30 30 29 28 27 27 27 26 27 27 26 24 22 19 18 19 20 20 19 17 15 14 14 14 15 17 18 18 17 13 8 6 6 8 10
101 100 99 97 95 94 93 90 88 86 84 83 81 80 78 77 76 75 73 72 71 69 67 64 64 65 63 59 57 57 56 53 51 49 48 48 49 50 48 45 42 41 40 38 36 35 33 31 31 31 31 30 29 28 28 27 28 28 28 28 27 25 21 18 18 20 21 20 18 16 15 15 15 15 16 17 19 20 19 14 9 8 8 9 10
103 102 101 99 98 96 95 93 91 89 87 85 84 83 81 80 79 78 76 75 74 73 70 68 67 67 67 65 61 58 57 55 53 52 52 51 50 50 49 49 48 46 43 41 39 37 35 34 33 32 31 30 30 29 28 28 28 29 29 29 28 26 21 18 18 20 21 19 17 16 16 16 16 16 17 19 20 22 20 15 11 11 11 10 11
106 105 103 102 100 99 97 95 94 92 90 88 87 85 84 83 82 81 79 78 77 76 74 72 70 69 69 69 66 62 60 59 57 55 54 53 52 51 50 50 49 47 45 43 41 39 37 35 34 34 33 31 30 29 28 27 28 28 28 28 28 26 22 20 19 20 20 19 18 17 17 16 17 18 18 20 22 23 20 15 13 13 13 13 14
110 108 107 105 104 102 100 98 97 95 93 91 89 87 86 85 84 83 82 81 80 78 77 76 74 72 70 70 69 66 64 62 60 58 57 56 56 54 52 50 47 46 46 46 44 42 39 37 35 35 34 31 30 29 28 27 27 28 28 28 28 26 23 21 21 20 20 19 18 17 17 18 19 19 20 22 23 22 18 17 16 15 15 15 16
113 112 110 108 107 105 104 102 100 98 96 94 92 90 88 87 86 85 85 83 82 81 80 79 78 75 73 71 70 69 66 65 64 62 60 59 59 58 56 52 49 48 49 49 46 43 41 39 37 36 34 32 30 28 28 28 27 28 29 29 28 26 23 21 21 22 21 19 18 18 18 18 20 21 23 23 22 20 18 18 18 17 17 17 18
116 115 114 112 110 109 107 106 104 102 99 97 95 94 92 90 89 87 87 86 84 83 82 81 80 79 76 73 72 71 69 68 67 65 63 62 61 61 59 57 55 53 51 49 48 45 43 41 40 37 33 29 29 30 31 30 29 30 32 31 29 27 25 24 24 24 22 20 19 19 20 22 23 24 24 23 21 19 18 17 17 17 17 18 18
118 118 117 116 114 112 111 109 107 106 103 101 99 97 95 93 92 90 89 88 87 86 85 84 83 82 80 77 75 73 71 70 70 68 66 64 63 62 61 59 58 56 54 52 51 49 47 45 43 39 35 35 38 40 37 33 32 35 37 37 35 32 29 28 27 26 23 21 22 23 25 26 27 26 24 23 21 20 18 16 15 16 16 17 18
119 119 119 118 117 116 114 113 111 109 107 104 102 100 98 96 95 93 91 90 89 88 87 86 85 84 83 81 78 76 74 73 72 71 70 68 66 64 63 62 61 60 57 54 54 54 52 50 47 45 45 47 49 45 39 37 38 37 38 41 43 40 35 32 30 28 27 26 27 28 29 29 28 27 26 24 22 20 18 17 16 16 17 18 19
121 120 120 119 119 119 118 116 115 113 111 108 106 104 102 100 98 96 94 93 92 91 90 89 87 86 86 84 83 80 78 76 75 74 74 72 69 67 66 65 65 64 60 57 57 58 57 55 53 53 54 54 52 48 45 45 43 38 37 43 47 44 40 36 31 30 33 35 35 35 34 32 30 29 28 26 24 22 21 22 21 19 19 20 21
124 123 122 121 121 120 120 119 118 117 115 112 110 108 106 104 101 99 97 95 95 94 93 92 90 89 88 88 86 85 82 80 79 78 77 75 73 71 70 70 70 68 65 61 60 61 61 60 59 59 58 56 54 53 53 52 48 42 42 46 48 45 40 36 32 34 41 45 43 42 41 39 37 35 33 31 29 26 25 25 25 24 23 23 24
Wind_Direction
271 276 280 283 288 294 298 304 309 315 321 323 324 329 337 336 337 340 315 259 238 235 218 93 102 98 78 59 73 95 80 54 40 45 52 52 52 55 59 67 72 73 72 70 69 67 65 63 63 62 62 63 65 66 66 67 67 66 65 64 64 64 66 68 69 71 74 77 83 91 98 103 106 108 109 109 109 110 110 110 111 112 114 115 117
268 272 275 278 284 288 292 298 302 308 314 317 315 316 325 324 325 332 312 265 238 229 236 226 119 114 110 77 61 92 89 63 42 48 59 58 57 57 58 64 70 73 73 73 71 68 66 64 64 63 63 63 64 65 67 67 68 67 66 65 64 64 66 68 70 72 74 77 81 85 90 95 98 100 101 103 105 107 108 109 111 111 112 114 115
266 268 271 276 280 283 286 291 296 301 305 308 306 306 310 310 310 317 305 271 244 228 229 238 181 139 142 134 111 121 100 60 34 44 65 67 64 62 61 65 70 73 74 74 73 71 68 66 64 64 64 64 64 65 66 67 69 69 68 67 66 66 66 68 70 73 75 78 80 83 86 89 92 94 96 99 101 103 105 106 107 108 109 111 112
264 267 271 275 276 279 282 287 291 293 296 300 301 298 296 295 293 299 298 275 248 229 223 227 216 180 167 170 174 170 155 115 30 40 65 72 71 69 66 68 71 74 76 76 75 73 70 68 66 66 65 65 65 65 66 67 68 70 70 70 69 68 68 69 70 72 74 77 80 83 85 87 90 92 95 97 99 101 102 102 104 106 108 109 109
264 267 269 271 273 276 280 283 285 287 289 294 296 293 289 283 276 280 287 274 248 232 225 224 223 216 198 192 199 196 173 146 66 49 69 74 75 75 72 71 74 76 78 79 77 75 72 70 68 67 67 66 66 66 66 67 68 69 70 71 71 70 70 70 71 73 74 76 78 81 84 86 88 90 93 95 96 98 99 100 102 103 105 105 106
263 266 267 269 272 276 278 279 280 282 285 289 292 289 283 273 263 262 266 262 245 233 229 229 230 231 230 223 221 222 191 152 119 98 94 84 81 80 77 75 77 78 80 81 80 78 75 72 70 69 68 67 67 67 67 67 67 68 70 71 72 72 73 73 73 74 75 76 77 79 81 84 85 87 89 92 94 95 97 99 100 101 102 102 101
263 267 268 270 273 275 276 277 278 279 281 285 287 284 277 267 257 249 249 252 245 235 230 231 234 235 242 247 229 216 209 177 141 132 118 97 90 88 85 80 80 82 83 83 82 81 78 75 72 71 69 68 68 67 67 67 67 68 69 71 72 73 74 75 75 76 76 77 78 79 80 82 84 84 85 88 90 91 94 95 95 94 93 92 91
263 266 267 270 273 274 274 274 274 275 278 282 282 278 271 264 255 244 241 244 243 237 230 230 235 237 239 238 222 211 204 180 156 154 136 109 98 97 95 90 85 84 86 86 84 83 81 79 76 74 72 70 69 68 68 67 67 68 69 70 72 73 74 75 76 77 78 79 79 80 81 82 83 84 84 85 87 87 88 89 88 85 82 78 76
259 260 262 266 269 270 270 270 271 273 275 277 276 274 270 265 258 243 235 236 238 236 231 229 232 235 235 232 225 218 201 179 169 174 162 129 109 104 103 101 94 88 87 87 86 84 83 82 80 78 75 73 71 70 69 68 67 68 68 69 71 72 74 75 76 77 78 78 79 80 81 82 83 83 84 84 85 86 86 86 86 83 80 75 72
253 253 256 259 261 262 264 265 268 271 272 272 273 272 270 265 257 242 231 229 231 233 229 225 226 230 233 231 226 221 210 193 176 177 177 158 129 112 109 108 103 95 89 87 86 85 84 83 82 80 78 75 73 71 70 68 67 67 68 69 69 71 72 74 75 76 76 77 78 78 79 80 81 82 82 82 83 84 84 85 85 83 81 77 73
253 253 253 252 250 252 256 261 265 268 269 270 270 269 266 260 253 241 230 224 227 230 223 215 216 223 229 231 227 221 217 206 189 185 185 173 145 119 114 113 109 103 95 91 88 87 85 84 83 81 79 76 74 72 71 69 68 67 67 68 69 70 71 71 73 74 74 75 75 75 76 76 77 78 79 79 79 80 79 80 81 80 79 76 72
253 253 251 250 249 250 252 255 258 260 263 263 263 261 258 254 249 238 229 222 221 225 219 208 209 216 225 230 229 223 221 218 204 194 191 185 159 121 118 118 115 110 104 98 93 90 88 85 83 81 79 77 75 73 71 70 69 68 67 66 66 68 70 70 71 71 71 71 71 72 71 71 71 72 73 73 74 75 75 74 75 75 75 73 69
251 252 252 253 255 255 253 250 248 249 251 252 252 251 249 248 245 236 227 220 215 218 216 207 206 211 219 227 229 226 226 225 214 200 198 194 170 129 123 124 122 118 113 107 101 96 92 88 85 82 80 78 76 73 72 70 68 67 67 65 64 64 65 68 69 69 69 68 66 66 65 65 64 64 65 65 65 66 67 68 68 70 70 70 66
249 252 255 257 259 259 257 253 248 246 246 245 245 245 243 243 241 234 227 219 212 212 214 209 205 207 213 220 226 227 228 228 219 207 203 197 182 153 136 134 133 128 121 116 110 104 98 93 88 85 82 80 78 75 72 69 67 66 65 65 64 62 61 62 63 65 66 66 63 60 57 55 54 55 56 57 55 56 55 55 56 59 62 64 62
249 251 254 257 259 260 260 259 254 249 246 245 243 241 241 240 238 234 228 222 213 210 213 210 206 206 208 215 222 225 228 228 223 215 208 200 190 179 156 146 143 137 131 126 119 112 104 98 93 89 85 81 79 76 72 70 67 65 63 63 63 62 60 60 59 60 61 62 61 58 54 50 45 43 44 46 46 47 45 42 41 43 48 53 55
249 250 252 254 256 257 258 260 258 253 249 246 241 239 239 238 235 233 230 224 215 209 212 211 209 208 208 211 217 221 225 227 226 221 214 206 199 193 177 161 154 147 141 136 130 121 111 103 96 91 87 82 78 76 73 70 67 63 61 60 60 60 59 59 58 58 57 57 58 57 55 51 45 38 35 33 32 35 38 34 30 29 32 38 44
245 246 249 251 252 252 251 250 250 249 247 245 239 236 237 235 233 232 230 227 218 212 213 212 210 209 209 211 213 217 220 223 225 223 217 211 206 202 196 180 165 158 153 149 145 135 120 108 99 91 86 81 77 74 71 69 66 63 60 58 57 57 56 56 57 57 56 55 55 54 54 52 48 43 37 31 27 27 30 29 25 23 24 26 32
241 242 246 247 245 245 245 244 243 241 239 237 232 228 229 229 229 230 230 228 223 217 216 217 214 212 211 212 213 214 216 219 222 223 219 213 208 205 206 198 180 172 167 162 159 153 138 116 101 91 83 77 73 69 66 64 62 61 59 58 56 56 55 55 55 55 54 54 53 52 51 50 48 45 41 35 30 26 26 26 22 18 18 20 23
239 240 241 241 239 239 241 243 243 240 235 232 227 222 220 219 221 225 227 227 225 221 219 219 219 218 216 215 214 213 214 217 219 221 220 215 210 208 209 207 200 194 185 176 173 172 166 145 112 91 77 69 64 60 58 55 54 53 53 54 54 54 54 54 55 55 55 53 51 50 49 47 43 41 38 33 30 26 23 21 18 13 12 13 16
237 237 236 236 234 233 234 236 239 239 236 232 229 223 218 215 214 218 221 222 224 224 222 220 221 222 222 220 218 215 214 216 218 219 217 216 214 211 210 210 211 209 203 196 189 185 186 184 160 104 73 57 50 46 43 40 39 39 40 43 48 51 53 53 54 55 55 52 49 46 43 42 39 34 30 26 22 20 18 14 11 6 4 6 8
235 234 233 231 228 227 229 229 231 232 231 229 229 224 218 214 211 212 216 217 219 223 224 224 223 224 226 225 223 220 217 217 219 218 216 216 216 215 214 213 215 215 215 212 205 197 195 195 190 165 87 46 38 36 30 25 22 22 22 24 31 41 48 51 53 53 53 51 46 41 37 34 31 27 22 17 14 11 8 5 1 358 357 358 360
234 232 230 228 226 224 223 220 221 227 228 226 224 221 216 212 208 209 213 214 215 218 221 222 223 225 228 230 230 228 225 222 221 219 216 215 215 216 217 217 217 219 220 220 217 211 207 203 197 190 172 24 21 22 19 14 10 6 3 3 7 15 28 40 46 48 47 44 40 34 27 22 18 15 12 9 6 2 359 356 353 351 351 353 354
233 232 230 228 225 222 220 218 219 223 225 223 219 216 213 209 207 208 211 212 213 215 216 218 219 220 224 229 233 234 233 231 228 224 220 217 215 215 217 218 218 220 222 223 221 218 217 212 207 207 227 301 347 358 358 357 358 356 348 345 346 350 358 9 20 25 26 23 21 16 12 7 2 1 360 357 355 353 351 348 345 345 345 346 348
232 231 231 229 226 223 220 219 218 219 220 219 217 215 210 206 208 209 210 212 215 215 216 216 217 217 219 223 228 232 234 235 235 233 229 225 220 217 216 217 218 220 221 222 222 221 222 220 217 224 243 281 317 333 337 341 344 341 333 327 328 330 336 341 346 350 351 348 352 355 353 353 352 350 348 345 344 342 342 340 339 339 338 338 340
232 231 231 230 228 224 221 219 218 217 218 218 217 216 212 207 207 209 209 213 217 218 220 220 218 217 218 220 223 227 231 233 235 236 236 234 231 227 222 219 219 219 220 222 222 221 224 227 229 239 255 277 300 315 325 331 332 327 319 312 313 315 316 320 324 324 328 330 333 338 341 344 346 343 341 339 338 337 337 336 335 334 334 334 336
232 230 230 230 230 227 223 220 218 216 217 217 216 218 216 210 207 206 207 212 217 219 221 222 219 217 217 218 221 223 227 228 230 233 236 237 237 236 232 228 225 223 221 223 223 222 226 233 241 250 261 273 285 299 313 322 324 318 311 306 305 305 306 308 311 314 318 320 322 326 331 338 342 341 339 337 336 337 336 334 334 333 333 334 336
233 231 230 229 230 229 226 223 221 218 218 217 215 217 218 214 209 205 206 213 220 223 224 223 221 219 216 216 218 220 223 225 226 228 232 235 237 238 237 236 233 230 227 226 224 223 227 235 244 251 259 267 276 285 297 308 312 309 304 300 298 300 301 302 306 310 311 312 314 318 321 330 342 346 345 341 338 338 337 336 337 338 338 339 340
233 233 231 229 229 229 228 226 223 220 219 218 217 217 218 216 211 207 208 214 220 225 227 227 228 227 222 218 217 217 219 221 222 223 226 230 233 235 236 236 236 234 233 231 229 226 227 233 240 248 255 263 270 278 287 296 300 297 293 290 290 292 294 296 300 305 306 307 309 311 313 322 336 347 352 348 344 343 343 343 343 346 349 349 348
234 233 232 230 229 229 229 227 225 222 220 218 218 218 218 217 214 210 210 213 215 220 226 229 231 232 229 225 223 221 219 219 219 220 222 225 228 230 232 233 235 235 234 234 233 231 231 232 237 244 252 260 267 274 282 288 289 286 282 280 281 282 283 286 291 295 298 300 301 304 308 316 327 340 350 352 349 346 349 351 350 352 356 358 358
235 234 233 232 230 229 228 228 227 225 222 220 218 218 218 218 216 213 212 213 214 214 219 225 229 232 232 228 226 226 224 221 220 219 219 220 223 226 228 231 232 233 233 233 233 233 234 235 236 242 249 257 263 268 274 278 277 274 272 271 271 271 272 274 277 281 283 285 289 293 299 309 319 331 342 349 349 349 352 355 356 355 358 2 5
235 235 235 233 232 230 229 228 227 226 225 222 220 219 218 218 218 217 215 215 216 214 215 220 226 231 233 231 227 226 227 225 223 221 219 219 221 223 226 228 230 232 233 233 232 232 233 234 235 239 244 251 256 257 261 264 263 261 261 261 263 263 261 262 262 263 264 266 269 275 283 293 305 318 332 341 346 348 350 354 358 358 358 0 3
234 235 235 235 233 232 230 229 228 227 226 224 222 221 219 218 218 217 216 216 217 216 216 219 224 228 233 236 233 229 227 226 224 223 221 220 220 222 223 226 227 229 232 233 233 232 232 232 233 236 239 244 247 247 248 251 249 248 250 252 254 256 255 253 249 246 248 250 250 255 265 274 283 296 313 325 335 341 344 348 354 356 356 357 358
233 234 235 235 234 233 232 230 229 227 227 225 223 222 221 219 218 217 217 217 217 217 218 220 224 227 231 236 238 235 231 229 226 224 223 222 221 222 223 224 225 226 229 232 233 233 232 231 231 233 235 238 240 239 238 239 238 237 239 242 246 249 249 246 241 237 237 238 238 241 249 258 266 274 286 302 314 325 333 339 345 348 349 349 350
232 233 234 235 234 233 232 231 230 228 227 226 225 223 222 220 218 217 217 217 215 215 217 219 222 225 226 229 234 236 233 232 229 226 224 223 223 223 224 224 224 225 227 229 231 232 233 232 231 231 232 234 236 234 231 231 231 230 231 234 237 241 242 239 236 233 232 233 233 235 239 246 257 265 272 283 293 305 318 325 331 337 340 340 341
230 231 233 234 234 233 232 231 231 229 228 227 226 224 223 221 219 217 217 216 213 211 214 219 221 223 223 224 229 233 234 233 232 229 226 223 223 224 225 226 226 225 226 227 228 231 233 234 233 230 228 230 231 228 225 226 227 227 228 229 230 231 232 231 229 229 230 230 231 232 235 241 251 261 268 276 285 293 303 310 316 324 330 332 332
230 231 231 233 233 233 232 231 231 230 229 228 227 226 224 222 220 218 216 216 212 210 213 218 220 221 222 224 228 232 233 232 232 231 228 224 223 224 226 228 228 228 228 227 227 229 231 233 233 231 229 227 226 223 220 222 224 225 226 229 227 225 225 224 221 222 225 228 230 232 234 239 247 257 266 274 281 289 294 299 304 313 321 324 323
231 231 232 232 233 233 232 231 231 230 229 228 227 227 225 223 221 219 218 216 214 212 214 218 220 219 219 221 225 230 232 232 231 230 228 224 222 225 229 232 233 232 231 230 228 227 229 230 231 232 230 226 223 219 216 217 220 221 225 228 227 223 222 221 217 217 221 225 229 231 232 237 244 254 263 271 279 285 289 292 296 305 317 317 315
231 232 232 233 233 233 233 232 231 230 230 229 228 227 226 224 222 221 220 218 216 214 215 218 220 220 217 217 221 226 228 230 229 227 225 221 218 220 227 232 234 233 231 229 227 225 225 226 227 228 229 226 221 217 215 216 218 219 224 228 228 224 223 221 218 216 219 224 228 230 233 237 243 253 263 271 278 285 289 291 295 305 319 318 312
231 231 232 232 233 234 233 232 231 231 230 229 228 228 227 225 223 222 221 220 218 217 216 217 220 221 218 217 220 223 226 227 225 223 222 219 216 218 223 226 228 227 226 225 224 223 223 224 223 224 225 224 220 215 215 217 219 219 224 228 229 226 224 222 219 217 221 226 228 230 234 238 242 253 263 271 279 286 293 297 302 312 325 317 310
232 232 232 232 233 233 233 233 232 231 230 229 229 228 227 226 225 223 222 222 221 219 218 217 218 220 220 219 220 222 224 225 223 221 220 218 217 220 224 224 223 221 220 220 221 222 223 223 223 223 224 223 219 214 214 217 218 220 224 229 231 230 227 223 220 220 225 229 230 231 234 238 242 250 260 270 279 288 297 303 310 323 329 318 311
232 232 232 232 232 233 233 233 232 231 230 229 229 228 227 227 226 224 223 223 222 221 220 219 218 219 221 221 220 221 223 223 222 220 218 217 217 217 218 219 219 217 216 217 218 220 223 225 226 227 227 225 221 216 214 216 217 219 223 229 233 234 231 225 221 223 227 232 234 234 235 237 241 247 257 268 276 285 294 302 316 331 329 320 312
232 233 233 232 232 232 232 233 232 231 230 229 229 228 228 227 227 225 224 223 223 222 221 220 219 219 220 221 221 222 222 222 222 221 219 218 218 217 215 214 215 216 215 215 215 215 217 222 227 230 229 228 226 221 217 218 220 220 223 228 233 237 235 228 223 225 230 235 238 237 236 238 243 248 255 263 271 281 288 295 311 322 319 315 310
231 232 232 233 233 232 232 232 232 231 230 229 229 228 228 227 227 226 225 224 223 223 222 221 220 219 218 219 220 221 222 222 222 222 221 219 218 217 215 213 214 215 216 215 214 213 213 216 222 227 227 228 229 226 222 222 224 225 226 229 234 237 236 230 227 229 233 237 240 241 241 242 246 250 255 261 269 276 281 289 304 308 304 301 298
231 231 232 232 232 233 232 232 232 232 231 230 229 228 228 227 227 227 226 225 224 223 222 222 221 221 219 218 218 218 220 221 221 222 221 219 217 218 217 215 215 216 217 217 215 215 214 215 219 223 224 225 229 230 228 227 229 232 233 233 235 237 236 232 229 231 235 238 241 244 246 246 248 252 258 262 266 271 278 289 299 298 293 290 287
230 231 231 231 232 232 232 232 231 231 231 231 230 229 228 227 227 227 227 226 224 224 223 222 222 222 221 219 218 218 218 219 220 221 221 219 218 218 219 217 215 217 221 221 219 218 218 218 219 222 223 224 227 232 233 231 231 235 238 239 239 239 237 234 232 232 234 236 238 242 246 247 251 255 258 259 262 269 281 292 294 292 287 283 279
230 230 231 231 231 231 232 232 232 231 231 230 230 230 229 228 227 227 227 227 226 224 223 223 222 222 221 219 219 219 219 219 219 220 220 219 218 218 218 216 215 218 222 223 222 221 220 219 220 222 223 224 228 235 240 240 238 238 241 243 244 243 240 238 236 234 232 232 234 238 243 246 249 253 255 258 264 273 284 288 289 290 289 285 282
229 230 230 230 231 231 231 232 232 231 231 230 230 230 229 228 228 227 227 227 227 225 224 223 223 223 222 220 219 219 219 219 219 219 219 219 219 218 218 217 217 219 221 222 222 222 221 220 221 221 221 223 230 237 241 244 246 246 246 246 247 247 243 240 238 236 232 230 232 235 238 242 244 248 252 258 264 270 275 279 283 287 288 288 288
230 230 230 230 230 231 231 231 232 232 231 230 230 229 229 228 228 227 227 227 227 227 225 224 223 223 222 221 219 219 219 219 219 219 219 219 219 219 220 220 219 220 222 223 224 223 222 221 220 219 218 222 228 230 232 236 243 248 251 251 250 248 244 240 238 235 231 230 233 234 235 239 244 248 253 257 259 261 264 267 271 275 279 282 286
230 230 230 230 230 230 231 231 231 232 231 231 230 230 229 228 228 227 226 226 227 227 226 225 223 223 222 222 220 219 219 218 218 218 219 219 218 219 221 223 222 221 223 224 224 225 224 221 219 218 221 225 227 226 226 229 232 237 246 250 248 245 243 240 237 235 233 231 232 232 234 238 244 249 252 255 258 260 261 261 263 266 271 276 280
230 230 230 230 230 230 231 231 231 231 231 231 231 230 230 229 228 227 226 225 226 226 227 226 224 223 222 222 221 220 219 218 218 218 218 219 219 218 220 223 223 223 224 225 225 226 226 223 220 220 223 227 227 224 223 226 225 226 236 244 244 242 241 240 240 240 239 236 232 232 235 239 243 247 249 251 254 259 261 262 263 266 270 275 278
231 231 230 230 230 230 230 231 231 231 231 231 230 230 230 230 229 228 227 225 225 225 226 226 224 223 222 222 222 222 220 219 218 218 218 220 220 219 219 220 222 223 224 226 226 227 227 225 223 223 224 227 226 224 223 224 224 224 229 235 236 236 239 242 246 246 244 241 238 237 239 242 244 246 247 248 250 252 255 257 258 260 265 272 276
Height
11022 11024 11025 11026 11027 11027 11027 11027 11027 11027 11027 11027 11027 11026 11026 11026 11025 11025 11025 11025 11025 11025 11025 11025 11024 11024 11024 11024 11024 11024 11023 11023 11023 11023 11022 11022 11021 11020 11019 11018 11018 11017 11016 11015 11014 11012 11011 11010 11009 11007 11006 11004 11003 11001 11000 10999 10997 10996 10994 10992 10991 10989 10987 10985 10982 10980 10979 10978 10978 10978 10978 10979 10980 10982 10983 10985 10986 10987 10988 10988 10988 10988 10988 10988 10989
11020 11022 11023 11024 11025 11026 11026 11026 11026 11026 11026 11026 11026 11026 11026 11025 11025 11025 11025 11025 11025 11026 11026 11025 11025 11025 11025 11025 11025 11025 11025 11024 11025 11025 11024 11023 11023 11022 11021 11020 11020 11019 11018 11017 11016 11015 11014 11013 11011 11010 11008 11007 11006 11004 11003 11002 11001 10999 10998 10997 10995 10994 10992 10990 10988 10986 10985 10984 10983 10983 10983 10983 10984 10985 10986 10987 10988 10989 10990 10990 10990 10990 10990 10990 10991
11018 11019 11021 11022 11024 11024 11025 11025 11025 11025 11025 11025 11025 11025 11025 11025 11025 11025 11025 11025 11025 11026 11026 11026 11026 11026 11026 11026 11026 11026 11026 11026 11026 11026 11026 11025 11025 11024 11023 11022 11022 11021 11020 11019 11018 11017 11016 11015 11014 11013 11011 11010 11009 11008 11007 11005 11004 11003 11002 11001 11000 10999 10997 10995 10993 10992 10991 10990 10989 10989 10988 10988 10988 10989 10990 10991 10991 10992 10992 10992 10992 10992 10992 10993 10993
11016 11017 11019 11021 11022 11023 11023 11023 11023 11024 11024 11024 11024 11024 11024 11024 11024 11024 11024 11024 11025 11026 11026 11026 11026 11026 11026 11027 11027 11027 11027 11027 11027 11027 11027 11027 11026 11026 11025 11024 11024 11023 11022 11021 11021 11020 11019 11018 11017 11015 11014 11013 11012 11011 11010 11009 11008 11007 11006 11005 11004 11003 11002 11001 10999 10997 10996 10996 10995 10994 10994 10993 10993 10993 10994 10994 10994 10994 10994 10994 10995 10995 10995 10995 10995
11014 11016 11017 11018 11019 11021 11022 11022 11022 11022 11022 11023 11023 11023 11023 11023 11024 11024 11024 11024 11024 11025 11026 11026 11026 11027 11027 11027 11027 11027 11027 11027 11028 11028 11029 11029 11028 11027 11027 11026 11026 11025 11024 11023 11023 11022 11021 11020 11019 11018 11017 11016 11015 11014 11014 11013 11012 11011 11010 11008 11007 11007 11006 11005 11004 11002 11001 11001 11000 10999 10999 10998 10998 10998 10998 10997 10997 10997 10997 10997 10998 10998 10998 10998 10998
11011 11013 11015 11016 11017 11019 11020 11020 11020 11020 11021 11021 11022 11022 11022 11022 11023 11023 11023 11023 11024 11024 11025 11026 11026 11027 11027 11027 11028 11028 11028 11028 11028 11029 11029 11030 11029 11029 11028 11028 11027 11027 11026 11025 11025 11024 11023 11022 11022 11021 11020 11019 11018 11017 11017 11016 11016 11015 11013 11012 11011 11011 11010 11009 11008 11007 11006 11006 11005 11004 11003 11002 11002 11002 11002 11001 11001 11001 11001 11000 11001 11001 11001 11001 11001
11009 11011 11013 11014 11016 11017 11017 11018 11018 11019 11019 11020 11020 11020 11021 11021 11022 11022 11023 11023 11023 11023 11024 11025 11026 11026 11027 11028 11028 11028 11029 11029 11029 11029 11030 11030 11030 11030 11030 11030 11029 11028 11028 11027 11027 11026 11025 11024 11024 11023 11022 11021 11021 11020 11020 11019 11019 11018 11017 11016 11015 11014 11013 11013 11012 11011 11011 11010 11009 11008 11007 11006 11006 11005 11005 11005 11005 11005 11004 11004 11003 11004 11003 11003 11003
11007 11008 11010 11012 11013 11014 11014 11015 11016 11016 11017 11018 11018 11019 11019 11019 11020 11021 11021 11022 11022 11022 11023 11024 11025 11026 11027 11028 11028 11029 11029 11029 11030 11030 11031 11031 11031 11031 11031 11031 11030 11030 11029 11029 11028 11028 11027 11027 11026 11025 11024 11024 11023 11023 11023 11022 11021 11021 11020 11019 11018 11018 11017 11016 11015 11015 11014 11014 11013 11012 11011 11010 11009 11009 11009 11009 11008 11008 11007 11006 11006 11006 11006 11006 11006
11003 11005 11007 11008 11010 11011 11011 11012 11013 11014 11015 11015 11016 11016 11017 11018 11018 11019 11020 11021 11021 11021 11022 11023 11024 11026 11027 11028 11028 11029 11029 11029 11030 11031 11031 11032 11032 11032 11032 11032 11032 11031 11030 11030 11030 11030 11029 11029 11028 11027 11026 11026 11025 11025 11025 11024 11024 11023 11022 11021 11021 11020 11020 11019 11019 11018 11018 11017 11016 11015 11015 11014 11013 11012 11012 11012 11011 11010 11010 11009 11008 11007 11007 11008 11008
11000 11002 11003 11005 11006 11007 11007 11009 11010 11011 11012 11013 11014 11014 11015 11016 11016 11017 11018 11019 11020 11020 11021 11022 11023 11025 11027 11028 11028 11029 11029 11029 11030 11031 11032 11032 11033 11033 11033 11033 11033 11032 11032 11032 11032 11031 11031 11030 11030 11029 11028 11028 11027 11027 11026 11026 11026 11025 11025 11024 11024 11023 11023 11022 11022 11021 11021 11020 11019 11019 11018 11017 11016 11015 11015 11014 11014 11013 11012 11011 11010 11009 11009 11009 11009
10997 10998 10999 11000 11002 11002 11003 11006 11008 11008 11009 11010 11011 11012 11013 11013 11014 11015 11016 11017 11018 11019 11019 11021 11022 11024 11026 11027 11028 11028 11029 11029 11030 11031 11032 11032 11033 11033 11033 11034 11034 11033 11033 11033 11033 11033 11032 11031 11031 11030 11029 11029 11029 11028 11028 11028 11027 11027 11027 11026 11026 11026 11025 11025 11024 11024 11023 11023 11022 11021 11021 11020 11019 11018 11017 11017 11016 11015 11015 11014 11013 11011 11011 11010 11011
10993 10994 10995 10996 10997 10999 11001 11003 11005 11005 11007 11008 11009 11010 11011 11011 11012 11013 11014 11015 11016 11017 11018 11019 11021 11023 11025 11026 11027 11028 11028 11029 11029 11030 11031 11032 11033 11034 11034 11034 11034 11034 11034 11035 11034 11034 11033 11033 11032 11031 11031 11030 11030 11029 11029 11029 11028 11028 11028 11028 11028 11027 11027 11027 11026 11026 11025 11025 11024 11024 11023 11022 11021 11020 11019 11019 11018 11017 11017 11016 11015 11013 11012 11012 11012
10989 10989 10991 10993 10994 10996 10998 11000 11001 11002 11003 11005 11006 11007 11008 11008 11009 11011 11012 11013 11014 11015 11016 11017 11019 11021 11023 11025 11026 11027 11028 11029 11029 11030 11031 11032 11033 11034 11034 11035 11035 11035 11035 11036 11036 11035 11034 11034 11033 11032 11032 11031 11031 11030 11030 11030 11029 11029 11029 11029 11029 11029 11028 11028 11028 11027 11027 11026 11026 11025 11025 11024 11023 11022 11021 11020 11020 11019 11018 11017 11016 11015 11014 11013 11013
10986 10986 10988 10990 10992 10994 10995 10997 10998 10999 11000 11001 11003 11004 11005 11006 11007 11008 11009 11011 11012 11014 11014 11016 11017 11019 11021 11023 11025 11026 11027 11028 11029 11029 11030 11032 11033 11034 11034 11035 11036 11036 11036 11036 11037 11036 11035 11035 11034 11033 11033 11032 11032 11032 11031 11031 11030 11030 11030 11030 11029 11029 11029 11029 11029 11028 11028 11028 11027 11026 11026 11025 11024 11024 11023 11022 11021 11020 11019 11018 11017 11016 11015 11014 11013
10982 10984 10985 10987 10989 10991 10992 10994 10995 10996 10997 10998 11000 11001 11002 11003 11005 11006 11007 11009 11010 11012 11012 11014 11015 11017 11019 11021 11023 11024 11026 11027 11028 11029 11030 11031 11033 11034 11034 11035 11035 11036 11036 11037 11037 11037 11036 11036 11035 11034 11034 11034 11033 11032 11032 11032 11031 11031 11031 11030 11030 11030 11030 11029 11029 11029 11029 11028 11028 11027 11027 11026 11025 11025 11024 11023 11022 11021 11019 11019 11018 11017 11016 11015 11014
10977 10980 10982 10984 10987 10988 10989 10991 10992 10993 10993 10995 10997 10998 10999 11001 11002 11004 11006 11007 11009 11010 11011 11012 11013 11015 11017 11019 11021 11023 11024 11026 11027 11028 11029 11031 11032 11033 11034 11035 11035 11036 11036 11037 11038 11037 11037 11036 11036 11035 11035 11034 11034 11033 11033 11032 11032 11032 11032 11031 11031 11031 11031 11030 11030 11029 11029 11029 11028 11028 11027 11027 11026 11025 11024 11023 11022 11021 11020 11019 11018 11017 11017 11016 11015
10972 10975 10978 10981 10983 10985 10987 10988 10989 10990 10991 10992 10994 10995 10997 10998 11000 11002 11004 11006 11007 11008 11009 11010 11011 11013 11015 11017 11019 11021 11023 11025 11026 11027 11029 11030 11031 11033 11034 11034 11035 11035 11036 11037 11038 11038 11038 11037 11037 11036 11036 11035 11035 11034 11034 11033 11033 11033 11033 11032 11032 11032 11031 11031 11030 11030 11029 11029 11028 11028 11027 11027 11026 11025 11025 11024 11023 11021 11020 11019 11019 11018 11017 11016 11015
10969 10972 10974 10977 10979 10981 10982 10984 10985 10986 10987 10988 10990 10992 10994 10996 10998 11000 11003 11005 11006 11007 11008 11009 11010 11011 11013 11015 11017 11019 11021 11023 11024 11026 11027 11029 11030 11032 11033 11034 11035 11035 11036 11037 11037 11038 11038 11038 11037 11037 11037 11036 11035 11035 11034 11034 11034 11033 11033 11033 11032 11032 11032 11031 11031 11030 11030 11029 11029 11028 11028 11027 11027 11026 11025 11024 11023 11022 11021 11020 11019 11018 11018 11017 11016
10964 10968 10970 10974 10976 10977 10979 10980 10982 10983 10984 10985 10986 10988 10989 10992 10994 10997 11000 11003 11005 11005 11006 11007 11008 11010 11011 11013 11015 11017 11019 11021 11022 11024 11026 11028 11029 11030 11031 11033 11034 11035 11036 11036 11037 11038 11038 11038 11038 11037 11037 11036 11036 11035 11035 11034 11034 11034 11033 11033 11033 11032 11032 11032 11031 11031 11030 11030 11029 11028 11028 11027 11027 11026 11025 11025 11024 11023 11021 11020 11019 11019 11018 11017 11016
10959 10963 10966 10970 10973 10974 10975 10977 10979 10980 10981 10982 10982 10984 10986 10988 10990 10993 10996 10999 11001 11003 11004 11006 11007 11008 11010 11011 11013 11015 11017 11018 11020 11022 11024 11026 11027 11029 11030 11031 11033 11034 11035 11036 11036 11037 11037 11037 11037 11037 11037 11036 11036 11035 11035 11034 11034 11034 11033 11033 11033 11032 11032 11031 11031 11031 11030 11030 11029 11029 11028 11027 11026 11026 11025 11025 11024 11023 11022 11021 11020 11019 11018 11017 11017
10954 10958 10961 10965 10968 10969 10971 10973 10976 10978 10979 10979 10980 10981 10983 10984 10987 10989 10992 10995 10997 11000 11002 11003 11005 11006 11008 11009 11011 11013 11015 11016 11018 11020 11022 11024 11025 11027 11028 11030 11031 11033 11034 11035 11036 11036 11036 11036 11037 11037 11036 11036 11036 11035 11035 11034 11034 11033 11033 11033 11032 11032 11031 11031 11030 11030 11030 11029 11029 11028 11028 11027 11026 11026 11025 11024 11024 11023 11022 11021 11020 11019 11019 11018 11017
10949 10953 10956 10959 10962 10964 10966 10969 10973 10975 10976 10978 10979 10978 10979 10981 10983 10985 10988 10990 10992 10995 10997 10999 11002 11004 11006 11008 11010 11012 11013 11014 11016 11018 11020 11021 11023 11025 11026 11028 11030 11031 11033 11034 11034 11035 11035 11035 11036 11036 11036 11036 11035 11035 11034 11034 11033 11033 11032 11032 11032 11032 11031 11031 11030 11030 11029 11029 11028 11028 11027 11027 11026 11025 11024 11024 11023 11022 11021 11021 11020 11019 11019 11018 11017
10944 10947 10950 10954 10957 10959 10961 10965 10968 10970 10972 10975 10975 10975 10976 10978 10979 10981 10983 10986 10988 10990 10992 10995 10997 10999 11002 11005 11008 11010 11011 11013 11014 11016 11017 11019 11021 11022 11024 11026 11028 11029 11031 11032 11033 11033 11034 11034 11034 11035 11035 11035 11035 11034 11034 11033 11033 11033 11032 11032 11031 11031 11031 11030 11030 11029 11029 11028 11027 11027 11026 11026 11025 11024 11024 11023 11022 11021 11021 11020 11019 11019 11018 11018 11017
10938 10942 10945 10948 10951 10954 10957 10960 10963 10965 10967 10969 10970 10971 10972 10973 10975 10978 10981 10984 10986 10988 10990 10991 10993 10995 10998 11001 11003 11006 11009 11011 11012 11014 11016 11017 11019 11020 11022 11024 11025 11027 11028 11030 11031 11032 11032 11033 11033 11033 11033 11033 11033 11033 11033 11033 11033 11032 11032 11031 11031 11030 11030 11030 11030 11029 11028 11028 11027 11026 11026 11025 11024 11023 11023 11022 11021 11020 11020 11019 11019 11018 11018 11017 11016
10932 10936 10940 10942 10946 10949 10952 10955 10958 10960 10962 10964 10966 10968 10968 10969 10971 10975 10979 10982 10984 10986 10988 10989 10990 10992 10994 10996 10998 11002 11004 11007 11009 11012 11014 11016 11017 11018 11020 11022 11023 11024 11026 11028 11029 11030 11031 11031 11032 11032 11032 11032 11032 11032 11032 11032 11032 11032 11031 11031 11030 11030 11030 11030 11029 11029 11028 11027 11027 11026 11025 11024 11024 11023 11022 11021 11020 11019 11019 11018 11017 11017 11016 11016 11015
10926 10930 10934 10937 10940 10943 10947 10950 10953 10955 10957 10959 10962 10964 10966 10966 10968 10971 10975 10979 10981 10983 10984 10986 10987 10988 10990 10992 10994 10997 11000 11002 11005 11008 11011 11013 11015 11016 11018 11020 11021 11022 11024 11025 11027 11028 11029 11030 11030 11031 11031 11031 11031 11031 11031 11031 11031 11031 11031 11030 11030 11030 11030 11029 11029 11029 11028 11027 11026 11026 11025 11024 11023 11022 11021 11020 11019 11019 11018 11017 11016 11016 11015 11014 11014
10919 10924 10928 10932 10935 10938 10941 10944 10947 10950 10953 10955 10958 10960 10962 10964 10965 10968 10972 10974 10977 10980 10981 10982 10983 10985 10986 10987 10990 10992 10995 10998 11001 11004 11007 11009 11011 11013 11015 11017 11019 11020 11022 11023 11024 11025 11027 11028 11028 11029 11029 11030 11029 11030 11030 11030 11030 11030 11030 11029 11029 11029 11029 11029 11029 11029 11028 11027 11026 11026 11025 11024 11023 11022 11021 11020 11019 11018 11018 11017 11016 11015 11014 11013 11013
10913 10917 10922 10926 10929 10932 10935 10939 10942 10945 10948 10951 10953 10955 10957 10960 10963 10965 10967 10970 10974 10977 10978 10980 10981 10983 10983 10984 10986 10988 10991 10993 10996 10999 11002 11005 11006 11009 11011 11013 11015 11017 11019 11020 11022 11023 11024 11025 11026 11027 11028 11028 11028 11028 11028 11028 11029 11028 11028 11028 11028 11028 11028 11028 11028 11028 11028 11027 11026 11025 11025 11024 11023 11022 11021 11020 11019 11018 11017 11016 11015 11014 11014 11013 11012
10907 10911 10915 10919 10923 10926 10929 10933 10937 10940 10943 10946 10949 10951 10953 10956 10959 10961 10963 10966 10969 10972 10975 10977 10978 10980 10982 10983 10985 10986 10987 10989 10992 10995 10997 11000 11002 11004 11006 11009 11011 11013 11015 11017 11019 11020 11022 11022 11023 11024 11025 11026 11026 11027 11027 11027 11027 11027 11027 11027 11027 11027 11027 11027 11027 11027 11027 11027 11026 11025 11025 11024 11023 11022 11021 11020 11019 11018 11017 11016 11015 11014 11013 11012 11012
10900 10904 10908 10913 10917 10920 10923 10927 10931 10934 10938 10941 10944 10947 10949 10952 10954 10957 10959 10961 10964 10967 10970 10972 10974 10976 10979 10982 10983 10984 10986 10987 10989 10991 10993 10995 10997 10999 11002 11004 11006 11009 11011 11013 11015 11017 11019 11020 11021 11022 11023 11024 11024 11025 11026 11026 11026 11026 11026 11026 11026 11026 11026 11026 11026 11026 11026 11026 11026 11025 11024 11024 11023 11022 11021 11020 11019 11017 11016 11016 11014 11013 11012 11012 11011
10893 10897 10901 10905 10910 10914 10917 10921 10925 10928 10932 10936 10939 10942 10944 10947 10949 10952 10955 10958 10960 10963 10965 10968 10971 10974 10977 10979 10980 10981 10983 10984 10986 10988 10990 10992 10993 10995 10997 11000 11002 11004 11007 11009 11011 11013 11015 11017 11018 11019 11020 11021 11021 11022 11023 11023 11024 11024 11024 11024 11024 11024 11024 11024 11025 11025 11025 11025 11024 11024 11024 11023 11022 11022 11021 11020 11019 11018 11017 11016 11014 11013 11012 11011 11010
10886 10890 10894 10898 10903 10907 10911 10915 10919 10923 10926 10930 10933 10936 10939 10942 10944 10947 10951 10953 10956 10959 10963 10965 10968 10972 10975 10976 10977 10979 10980 10981 10982 10984 10986 10988 10990 10992 10993 10995 10997 11000 11002 11005 11007 11008 11010 11013 11015 11016 11017 11017 11018 11019 11020 11020 11021 11021 11022 11022 11023 11023 11023 11023 11023 11023 11023 11023 11023 11023 11022 11022 11021 11021 11020 11019 11018 11017 11017 11016 11015 11013 11012 11011 11010
10877 10882 10886 10890 10895 10900 10904 10909 10913 10917 10920 10924 10927 10931 10934 10937 10940 10943 10946 10949 10953 10957 10960 10964 10968 10971 10973 10973 10974 10976 10977 10978 10979 10980 10982 10984 10986 10988 10989 10991 10993 10996 10998 11000 11002 11003 11005 11007 11010 11012 11013 11014 11014 11015 11016 11016 11017 11018 11019 11020 11021 11021 11021 11022 11022 11022 11022 11021 11021 11021 11021 11021 11020 11020 11019 11018 11018 11017 11016 11016 11015 11013 11012 11011 11010
10868 10873 10877 10882 10887 10892 10897 10901 10906 10910 10914 10917 10921 10925 10928 10931 10934 10937 10941 10944 10949 10955 10960 10964 10965 10966 10967 10967 10969 10971 10973 10975 10976 10977 10978 10981 10982 10984 10986 10988 10990 10993 10995 10996 10998 11000 11001 11003 11005 11007 11008 11010 11011 11012 11012 11013 11013 11015 11016 11017 11018 11019 11019 11020 11020 11020 11020 11020 11020 11020 11020 11019 11019 11018 11018 11017 11017 11016 11016 11015 11014 11013 11012 11010 11009
10859 10864 10868 10873 10878 10883 10888 10893 10898 10902 10907 10911 10915 10919 10922 10925 10928 10932 10935 10939 10944 10951 10956 10957 10956 10955 10957 10960 10963 10966 10969 10971 10973 10974 10975 10977 10979 10981 10983 10986 10988 10990 10992 10993 10995 10997 10999 11000 11001 11002 11004 11005 11006 11008 11009 11010 11010 11011 11013 11014 11015 11015 11016 11017 11018 11019 11019 11019 11019 11019 11019 11018 11018 11017 11017 11016 11015 11015 11015 11014 11013 11012 11011 11010 11009
10850 10855 10859 10864 10869 10875 10880 10885 10889 10894 10899 10903 10907 10911 10915 10919 10922 10926 10929 10933 10937 10942 10944 10943 10944 10947 10951 10955 10959 10962 10964 10966 10969 10971 10973 10974 10976 10979 10981 10984 10986 10988 10989 10990 10992 10994 10996 10997 10999 11000 11001 11002 11002 11003 11005 11006 11007 11009 11010 11010 11011 11012 11013 11014 11016 11016 11017 11017 11017 11017 11018 11018 11017 11017 11016 11015 11014 11014 11014 11013 11012 11012 11011 11010 11008
10841 10846 10851 10855 10860 10866 10871 10876 10881 10886 10891 10895 10899 10903 10908 10912 10916 10919 10923 10926 10930 10933 10934 10934 10936 10941 10946 10950 10954 10957 10959 10961 10965 10968 10970 10973 10976 10978 10981 10984 10985 10986 10987 10988 10989 10990 10992 10994 10996 10997 10998 10998 10999 11000 11001 11002 11004 11006 11007 11007 11008 11010 11011 11012 11013 11014 11015 11015 11015 11016 11016 11016 11016 11016 11015 11014 11013 11013 11013 11012 11012 11011 11010 11010 11008
10830 10836 10841 10846 10851 10856 10862 10867 10872 10877 10882 10887 10891 10895 10900 10904 10908 10912 10916 10919 10923 10926 10928 10929 10931 10935 10940 10943 10946 10949 10952 10956 10959 10964 10967 10969 10972 10974 10978 10982 10983 10983 10983 10983 10984 10986 10987 10989 10991 10992 10993 10994 10995 10997 10999 11000 11001 11003 11004 11004 11006 11008 11009 11010 11011 11012 11012 11013 11013 11014 11014 11014 11014 11014 11013 11013 11012 11011 11011 11011 11011 11010 11010 11009 11008
10820 10825 10831 10836 10841 10847 10852 10858 10863 10868 10873 10878 10882 10887 10891 10896 10900 10905 10908 10912 10916 10919 10922 10924 10927 10930 10934 10938 10941 10943 10946 10950 10954 10958 10962 10965 10967 10968 10969 10972 10975 10976 10977 10978 10980 10981 10983 10985 10986 10988 10990 10991 10992 10994 10996 10998 11000 11001 11002 11002 11003 11005 11006 11008 11009 11010 11010 11010 11011 11011 11012 11012 11013 11013 11012 11011 11010 11009 11009 11009 11009 11009 11009 11008 11007
10808 10814 10820 10826 10831 10837 10842 10848 10854 10858 10864 10869 10873 10878 10883 10887 10892 10896 10901 10905 10908 10912 10915 10919 10922 10926 10929 10933 10935 10938 10941 10945 10948 10952 10956 10959 10961 10961 10960 10962 10966 10970 10972 10974 10976 10978 10980 10981 10983 10985 10987 10988 10989 10991 10993 10995 10997 10999 11000 11000 11001 11003 11004 11006 11007 11008 11008 11008 11008 11009 11009 11010 11010 11011 11010 11009 11008 11007 11007 11007 11008 11008 11008 11007 11006
10796 10802 10809 10815 10821 10826 10832 10837 10843 10849 10854 10859 10864 10869 10874 10878 10882 10887 10892 10896 10901 10905 10909 10913 10917 10921 10925 10928 10930 10933 10936 10940 10943 10947 10949 10950 10950 10950 10952 10957 10962 10966 10968 10969 10972 10974 10976 10978 10980 10982 10984 10985 10986 10988 10990 10992 10994 10996 10997 10998 10999 11000 11002 11004 11006 11006 11006 11006 11006 11006 11007 11007 11008 11008 11008 11007 11006 11005 11005 11005 11005 11006 11006 11006 11005
10784 10790 10797 10803 10810 10816 10821 10826 10832 10838 10843 10849 10854 10859 10864 10869 10873 10878 10883 10888 10892 10897 10902 10907 10910 10914 10918 10922 10925 10928 10931 10935 10938 10941 10942 10944 10944 10945 10948 10952 10957 10960 10963 10964 10965 10968 10970 10973 10976 10979 10981 10983 10985 10986 10988 10990 10992 10993 10995 10996 10996 10998 11000 11002 11004 11004 11004 11004 11004 11005 11005 11005 11005 11005 11005 11005 11004 11003 11002 11002 11003 11003 11004 11004 11003
10772 10778 10784 10791 10798 10804 10810 10816 10821 10827 10832 10838 10844 10849 10855 10859 10864 10868 10873 10879 10883 10888 10894 10899 10901 10904 10908 10912 10917 10921 10925 10929 10932 10934 10936 10938 10940 10942 10944 10946 10949 10952 10956 10958 10960 10962 10964 10967 10970 10975 10978 10980 10982 10985 10987 10989 10990 10991 10993 10994 10994 10996 10998 11000 11001 11002 11002 11003 11003 11003 11003 11003 11003 11003 11003 11002 11001 11001 11000 11000 11001 11001 11001 11001 11001
10760 10766 10772 10779 10785 10791 10798 10804 10810 10815 10821 10827 10833 10839 10844 10849 10854 10859 10863 10869 10874 10879 10884 10889 10893 10896 10900 10903 10907 10911 10916 10920 10924 10927 10929 10932 10935 10938 10940 10942 10944 10948 10952 10954 10957 10959 10961 10963 10967 10971 10974 10977 10980 10982 10985 10987 10989 10990 10992 10992 10993 10994 10996 10998 10999 10999 11000 11001 11001 11001 11001 11001 11000 11000 11000 11000 10999 10998 10997 10998 10998 10998 10998 10998 10997
10748 10754 10760 10766 10772 10778 10784 10791 10797 10804 10810 10815 10822 10828 10834 10839 10844 10849 10854 10859 10865 10870 10875 10880 10884 10888 10892 10897 10900 10904 10907 10911 10915 10919 10922 10926 10929 10932 10934 10937 10942 10946 10949 10950 10952 10955 10957 10959 10963 10967 10971 10974 10977 10980 10982 10985 10987 10989 10990 10991 10991 10992 10994 10995 10996 10996 10997 10998 10999 10999 10999 10998 10998 10997 10997 10996 10996 10995 10995 10995 10996 10996 10996 10995 10994
10735 10741 10747 10753 10760 10765 10770 10776 10784 10791 10797 10804 10810 10816 10823 10829 10834 10839 10844 10849 10855 10861 10866 10871 10876 10880 10884 10889 10893 10897 10901 10904 10906 10910 10914 10918 10922 10925 10928 10933 10937 10940 10942 10944 10947 10950 10953 10956 10959 10964 10967 10970 10974 10978 10980 10982 10984 10987 10988 10989 10990 10991 10991 10992 10992 10992 10993 10994 10995 10996 10996 10996 10995 10994 10993 10992 10992 10993 10993 10993 10993 10993 10993 10992 10992
10720 10727 10733 10740 10747 10753 10758 10763 10770 10776 10784 10791 10798 10804 10811 10817 10822 10828 10834 10839 10845 10851 10856 10862 10867 10871 10875 10880 10884 10889 10893 10897 10899 10903 10907 10911 10915 10918 10922 10926 10930 10933 10935 10939 10942 10945 10949 10952 10955 10959 10965 10970 10973 10975 10975 10978 10983 10987 10988 10988 10989 10990 10989 10989 10988 10988 10989 10990 10992 10992 10992 10992 10991 10990 10989 10989 10989 10990 10990 10990 10990 10990 10990 10990 10989
10706 10712 10719 10726 10733 10739 10745 10751 10757 10763 10770 10778 10785 10791 10798 10804 10810 10816 10823 10829 10835 10840 10846 10852 10857 10861 10867 10872 10876 10880 10885 10888 10892 10896 10900 10904 10908 10912 10916 10919 10923 10926 10929 10933 10937 10940 10943 10946 10950 10954 10959 10963 10963 10963 10967 10974 10982 10987 10988 10988 10988 10987 10986 10985 10984 10984 10985 10986 10987 10987 10987 10986 10986 10986 10986 10986 10986 10986 10987 10987 10987 10987 10987 10987 10987
10692 10698 10705 10712 10719 10725 10731 10738 10743 10749 10757 10765 10772 10778 10785 10791 10797 10803 10811 10818 10824 10829 10835 10841 10847 10852 10857 10862 10866 10871 10876 10880 10884 10887 10891 10895 10900 10905 10909 10912 10915 10919 10922 10926 10930 10933 10936 10940 10943 10945 10946 10947 10949 10954 10961 10967 10973 10979 10985 10987 10984 10983 10982 10981 10980 10980 10979 10979 10980 10980 10980 10981 10982 10982 10983 10983 10983 10983 10984 10984 10984 10984 10984 10984 10984
10677 10683 10690 10697 10704 10711 10718 10724 10729 10735 10743 10752 10759 10765 10772 10779 10785 10791 10798 10805 10811 10817 10823 10829 10835 10842 10847 10852 10857 10862 10867 10871 10875 10878 10883 10887 10892 10897 10900 10903 10906 10910 10915 10919 10922 10925 10928 10933 10936 10936 10935 10936 10941 10947 10952 10954 10959 10969 10978 10981 10980 10978 10979 10979 10978 10976 10971 10969 10971 10972 10973 10975 10977 10978 10979 10980 10980 10980 10981 10981 10981 10981 10980 10980 10980
10660 10667 10675 10681 10689 10696 10704 10710 10715 10721 10729 10738 10746 10752 10758 10765 10771 10778 10785 10792 10798 10804 10810 10817 10823 10830 10836 10841 10846 10851 10857 10862 10865 10869 10874 10879 10884 10888 10891 10894 10897 10902 10907 10911 10914 10917 10921 10925 10929 10930 10930 10931 10934 10938 10941 10946 10953 10962 10968 10971 10972 10975 10977 10979 10979 10971 10961 10957 10962 10966 10967 10969 10971 10973 10974 10975 10975 10976 10977 10976 10977 10977 10976 10976 10976